Flag for U.S.A. Weather past 2 weeks in Tyler, Texas, U.S.A.

Now
75 °F

Clear.


Feels Like: 76 °F
Forecast: 74 / 90 °F
Wind: 13 mph from Southwest

Location: Tyler Pounds Field

Current Time: Jul 2, 2015 at 5:29:47 AM

Latest Report: Jul 2, 2015 at 4:53 AM


Visibility: 10 mi

Pressure: 29.96 "Hg

Humidity: 76%

Dew point: 67 °F

Location of TylerLocation

Historic Weather in Tyler — Graph

°F

Tyler temperature yesterday

Maximum temperature yesterday: 91 °F (at 5:53 PM)
Minimum temperature yesterday: 73 °F (at 12:53 AM)
Average temperature yesterday: 81 °F

Past Weeks' High & Low Weather Summary

 TemperatureHumidityPressure
High93 °F (Jun 24, 3:53 PM)94% (Jun 23, 5:53 AM)30.17 "Hg (Jun 23, 5:53 AM)
Low71 °F (Jun 28, 4:53 AM)42% (Jun 28, 5:53 PM)29.81 "Hg (Jun 17, 6:53 PM)
Average82 °F73%30.00 "Hg
* Reported Jun 17 5:53 AM — Jul 2 3:53 AM, Tyler, Weather by CustomWeather, © 2015

Note: Actual official high and low records may vary slightly from our data, if they occured in-between our weather recording intervals... More about our weather records

Advertising

Tyler weather history for previous 24 hours

 ConditionsComfort  
Time TempWeatherWind HumidityBarometerVisibility
3:53 AM
Thu, Jul 2
75 °FPassing clouds.10 mph76%29.96 "Hg10 mi
2:53 AM74 °FClear.12 mph79%29.95 "Hg10 mi
1:53 AM75 °FClear.12 mph76%29.94 "Hg10 mi
12:53 AM76 °FClear.12 mph74%29.96 "Hg10 mi
11:53 PM
Wed, Jul 1
75 °FClear.9 mph76%29.98 "Hg10 mi
10:53 PM76 °FClear.7 mph77%29.98 "Hg10 mi
9:53 PM79 °FClear.10 mph69%29.97 "Hg10 mi
8:53 PM81 °FSunny.10 mph65%29.95 "Hg10 mi
7:53 PM85 °FSunny.14 mph63%29.96 "Hg10 mi
6:53 PM88 °FSunny.17 mph57%29.96 "Hg10 mi
5:53 PM91 °FSunny.12 mph54%29.95 "Hg10 mi
4:53 PM90 °FPassing clouds.15 mph54%29.96 "Hg10 mi
3:53 PM90 °FSunny.13 mph54%29.97 "Hg10 mi
2:53 PM90 °FPassing clouds.14 mph54%29.99 "Hg10 mi
1:53 PM90 °FPassing clouds.13 mph56%30.01 "Hg10 mi
12:53 PM89 °FScattered clouds.14 mph55%30.03 "Hg10 mi
11:53 AM87 °FSunny.12 mph59%30.02 "Hg10 mi
10:53 AM85 °FSunny.13 mph61%30.02 "Hg10 mi
9:53 AM82 °FSunny.13 mph70%30.02 "Hg10 mi
8:53 AM78 °FPassing clouds.16 mph76%30.02 "Hg10 mi
7:53 AM75 °FSunny.9 mph85%30.01 "Hg10 mi
6:53 AM73 °FClear.6 mph90%30.01 "Hg10 mi
5:53 AM74 °FClear.9 mph88%29.98 "Hg10 mi
Weather by CustomWeather, © 2015

See weather overviewHow to use our weather pages